owner,sensor,date,latitude,longitude,vertical_datum,mass_concentration_of_oxygen_in_sea_water,qcFlag 
TCOON,ioos:station:TCOON:171:1,2019-10-01T00:30:00Z,27.4847,-97.3181,1.0,4.5,11111222 
TCOON,ioos:station:TCOON:171:1,2019-10-01T01:30:00Z,27.4847,-97.3181,1.0,4.16,11111222 
TCOON,ioos:station:TCOON:171:1,2019-10-01T02:30:00Z,27.4847,-97.3181,1.0,4.2,11111222 
TCOON,ioos:station:TCOON:171:1,2019-10-01T03:30:00Z,27.4847,-97.3181,1.0,3.82,11111222 
TCOON,ioos:station:TCOON:171:1,2019-10-01T04:30:00Z,27.4847,-97.3181,1.0,3.72,11111222 
TCOON,ioos:station:TCOON:171:1,2019-10-01T05:30:00Z,27.4847,-97.3181,1.0,4.0,11111222 
TCOON,ioos:station:TCOON:171:1,2019-10-01T06:30:00Z,27.4847,-97.3181,1.0,3.46,11111222 
TCOON,ioos:station:TCOON:171:1,2019-10-01T07:30:00Z,27.4847,-97.3181,1.0,3.26,11111222 
TCOON,ioos:station:TCOON:171:1,2019-10-01T08:30:00Z,27.4847,-97.3181,1.0,2.84,11111222 
TCOON,ioos:station:TCOON:171:1,2019-10-01T09:30:00Z,27.4847,-97.3181,1.0,2.58,11111222 
TCOON,ioos:station:TCOON:171:1,2019-10-01T10:30:00Z,27.4847,-97.3181,1.0,2.77,11111222 
TCOON,ioos:station:TCOON:171:1,2019-10-01T11:30:00Z,27.4847,-97.3181,1.0,2.83,11111222 
TCOON,ioos:station:TCOON:171:1,2019-10-01T12:30:00Z,27.4847,-97.3181,1.0,2.05,11111222 
TCOON,ioos:station:TCOON:171:1,2019-10-01T13:30:00Z,27.4847,-97.3181,1.0,2.3,11111222 
TCOON,ioos:station:TCOON:171:1,2019-10-01T14:30:00Z,27.4847,-97.3181,1.0,3.27,11111222 
TCOON,ioos:station:TCOON:171:1,2019-10-01T15:30:00Z,27.4847,-97.3181,1.0,2.78,11111222 
TCOON,ioos:station:TCOON:171:1,2019-10-01T16:30:00Z,27.4847,-97.3181,1.0,3.1,11111222 
TCOON,ioos:station:TCOON:171:1,2019-10-01T17:30:00Z,27.4847,-97.3181,1.0,4.79,11111222 
TCOON,ioos:station:TCOON:171:1,2019-10-01T18:30:00Z,27.4847,-97.3181,1.0,5.13,11111222 
TCOON,ioos:station:TCOON:171:1,2019-10-01T19:30:00Z,27.4847,-97.3181,1.0,5.69,11111222 
TCOON,ioos:station:TCOON:171:1,2019-10-01T20:30:00Z,27.4847,-97.3181,1.0,6.38,11111222 
TCOON,ioos:station:TCOON:171:1,2019-10-01T21:30:00Z,27.4847,-97.3181,1.0,7.76,11111222 
TCOON,ioos:station:TCOON:171:1,2019-10-01T22:30:00Z,27.4847,-97.3181,1.0,6.32,11111222 
TCOON,ioos:station:TCOON:171:1,2019-10-01T23:30:00Z,27.4847,-97.3181,1.0,5.51,11111222 
TCOON,ioos:station:TCOON:171:1,2019-10-02T00:30:00Z,27.4847,-97.3181,1.0,4.7,11111222 
TCOON,ioos:station:TCOON:171:1,2019-10-02T01:30:00Z,27.4847,-97.3181,1.0,4.29,11111222 
TCOON,ioos:station:TCOON:171:1,2019-10-02T02:30:00Z,27.4847,-97.3181,1.0,3.31,11111222 
TCOON,ioos:station:TCOON:171:1,2019-10-02T03:30:00Z,27.4847,-97.3181,1.0,3.67,11111222 
TCOON,ioos:station:TCOON:171:1,2019-10-02T05:00:00Z,27.4847,-97.3181,1.0,3.71,11111222 
TCOON,ioos:station:TCOON:171:1,2019-10-02T05:30:00Z,27.4847,-97.3181,1.0,3.21,11111222 
TCOON,ioos:station:TCOON:171:1,2019-10-02T06:30:00Z,27.4847,-97.3181,1.0,2.94,11111222 
TCOON,ioos:station:TCOON:171:1,2019-10-02T07:30:00Z,27.4847,-97.3181,1.0,3.33,11111222 
TCOON,ioos:station:TCOON:171:1,2019-10-02T08:30:00Z,27.4847,-97.3181,1.0,3.22,11111222 
TCOON,ioos:station:TCOON:171:1,2019-10-02T09:30:00Z,27.4847,-97.3181,1.0,2.56,11111222 
TCOON,ioos:station:TCOON:171:1,2019-10-02T10:30:00Z,27.4847,-97.3181,1.0,1.77,11111222 
TCOON,ioos:station:TCOON:171:1,2019-10-02T11:30:00Z,27.4847,-97.3181,1.0,1.24,11111222 
TCOON,ioos:station:TCOON:171:1,2019-10-02T12:30:00Z,27.4847,-97.3181,1.0,2.68,11111222 
TCOON,ioos:station:TCOON:171:1,2019-10-02T13:30:00Z,27.4847,-97.3181,1.0,2.51,11111222 
TCOON,ioos:station:TCOON:171:1,2019-10-02T14:30:00Z,27.4847,-97.3181,1.0,2.39,11111222 
TCOON,ioos:station:TCOON:171:1,2019-10-02T15:30:00Z,27.4847,-97.3181,1.0,2.56,11111222 
TCOON,ioos:station:TCOON:171:1,2019-10-02T16:30:00Z,27.4847,-97.3181,1.0,2.82,11111222 
TCOON,ioos:station:TCOON:171:1,2019-10-02T17:30:00Z,27.4847,-97.3181,1.0,3.41,11111222 
TCOON,ioos:station:TCOON:171:1,2019-10-02T18:30:00Z,27.4847,-97.3181,1.0,4.23,11111222 
TCOON,ioos:station:TCOON:171:1,2019-10-02T19:30:00Z,27.4847,-97.3181,1.0,4.31,11111222 
TCOON,ioos:station:TCOON:171:1,2019-10-02T20:30:00Z,27.4847,-97.3181,1.0,5.05,11111222 
TCOON,ioos:station:TCOON:171:1,2019-10-02T21:30:00Z,27.4847,-97.3181,1.0,6.62,11111222 
TCOON,ioos:station:TCOON:171:1,2019-10-02T22:30:00Z,27.4847,-97.3181,1.0,7.05,11111222 
TCOON,ioos:station:TCOON:171:1,2019-10-02T23:30:00Z,27.4847,-97.3181,1.0,5.34,11111222 
TCOON,ioos:station:TCOON:171:1,2019-10-03T00:30:00Z,27.4847,-97.3181,1.0,5.46,11111222 
TCOON,ioos:station:TCOON:171:1,2019-10-03T01:30:00Z,27.4847,-97.3181,1.0,4.58,11111222 
TCOON,ioos:station:TCOON:171:1,2019-10-03T02:30:00Z,27.4847,-97.3181,1.0,3.98,11111222 
TCOON,ioos:station:TCOON:171:1,2019-10-03T03:30:00Z,27.4847,-97.3181,1.0,2.8,11111222 
TCOON,ioos:station:TCOON:171:1,2019-10-03T04:30:00Z,27.4847,-97.3181,1.0,2.4,11111222 
TCOON,ioos:station:TCOON:171:1,2019-10-03T05:30:00Z,27.4847,-97.3181,1.0,2.77,11111222 
TCOON,ioos:station:TCOON:171:1,2019-10-03T06:30:00Z,27.4847,-97.3181,1.0,2.15,11111222 
TCOON,ioos:station:TCOON:171:1,2019-10-03T07:30:00Z,27.4847,-97.3181,1.0,2.46,11111222 
TCOON,ioos:station:TCOON:171:1,2019-10-03T08:30:00Z,27.4847,-97.3181,1.0,2.66,11111222 
TCOON,ioos:station:TCOON:171:1,2019-10-03T09:30:00Z,27.4847,-97.3181,1.0,2.33,11111222 
TCOON,ioos:station:TCOON:171:1,2019-10-03T10:30:00Z,27.4847,-97.3181,1.0,1.99,11111222 
TCOON,ioos:station:TCOON:171:1,2019-10-03T11:30:00Z,27.4847,-97.3181,1.0,2.56,11111222 
TCOON,ioos:station:TCOON:171:1,2019-10-03T12:30:00Z,27.4847,-97.3181,1.0,2.73,11111222 
TCOON,ioos:station:TCOON:171:1,2019-10-03T13:30:00Z,27.4847,-97.3181,1.0,2.29,11111222 
TCOON,ioos:station:TCOON:171:1,2019-10-03T14:30:00Z,27.4847,-97.3181,1.0,2.42,11111222 
TCOON,ioos:station:TCOON:171:1,2019-10-03T15:30:00Z,27.4847,-97.3181,1.0,2.88,11111222 
TCOON,ioos:station:TCOON:171:1,2019-10-03T16:30:00Z,27.4847,-97.3181,1.0,2.9,11111222 
TCOON,ioos:station:TCOON:171:1,2019-10-03T17:30:00Z,27.4847,-97.3181,1.0,3.69,11111222 
TCOON,ioos:station:TCOON:171:1,2019-10-03T18:30:00Z,27.4847,-97.3181,1.0,3.77,11111222 
TCOON,ioos:station:TCOON:171:1,2019-10-03T19:30:00Z,27.4847,-97.3181,1.0,4.37,11111222 
TCOON,ioos:station:TCOON:171:1,2019-10-03T20:30:00Z,27.4847,-97.3181,1.0,4.13,11111222 
TCOON,ioos:station:TCOON:171:1,2019-10-03T21:30:00Z,27.4847,-97.3181,1.0,4.59,11111222 
TCOON,ioos:station:TCOON:171:1,2019-10-03T22:30:00Z,27.4847,-97.3181,1.0,3.92,11111222 
TCOON,ioos:station:TCOON:171:1,2019-10-03T23:30:00Z,27.4847,-97.3181,1.0,4.45,11111222 
TCOON,ioos:station:TCOON:171:1,2019-10-04T00:30:00Z,27.4847,-97.3181,1.0,3.5,11111222 
TCOON,ioos:station:TCOON:171:1,2019-10-04T01:30:00Z,27.4847,-97.3181,1.0,2.95,11111222 
TCOON,ioos:station:TCOON:171:1,2019-10-04T02:30:00Z,27.4847,-97.3181,1.0,2.59,11111222 
TCOON,ioos:station:TCOON:171:1,2019-10-04T03:30:00Z,27.4847,-97.3181,1.0,2.12,11111222 
TCOON,ioos:station:TCOON:171:1,2019-10-04T04:30:00Z,27.4847,-97.3181,1.0,1.58,11111222 
TCOON,ioos:station:TCOON:171:1,2019-10-04T05:30:00Z,27.4847,-97.3181,1.0,2.26,11111222 
TCOON,ioos:station:TCOON:171:1,2019-10-04T06:30:00Z,27.4847,-97.3181,1.0,2.38,11111222 
TCOON,ioos:station:TCOON:171:1,2019-10-04T07:30:00Z,27.4847,-97.3181,1.0,1.76,11111222 
TCOON,ioos:station:TCOON:171:1,2019-10-04T08:30:00Z,27.4847,-97.3181,1.0,1.19,11111222 
TCOON,ioos:station:TCOON:171:1,2019-10-04T09:30:00Z,27.4847,-97.3181,1.0,1.37,11111222 
TCOON,ioos:station:TCOON:171:1,2019-10-04T10:30:00Z,27.4847,-97.3181,1.0,0.88,11111222 
TCOON,ioos:station:TCOON:171:1,2019-10-04T11:30:00Z,27.4847,-97.3181,1.0,0.8,11111222 
TCOON,ioos:station:TCOON:171:1,2019-10-04T12:30:00Z,27.4847,-97.3181,1.0,1.98,11111222 
TCOON,ioos:station:TCOON:171:1,2019-10-04T13:30:00Z,27.4847,-97.3181,1.0,2.49,11111222 
TCOON,ioos:station:TCOON:171:1,2019-10-04T14:30:00Z,27.4847,-97.3181,1.0,2.4,11111222 
TCOON,ioos:station:TCOON:171:1,2019-10-04T15:30:00Z,27.4847,-97.3181,1.0,2.51,11111222 
TCOON,ioos:station:TCOON:171:1,2019-10-04T16:30:00Z,27.4847,-97.3181,1.0,2.42,11111222 
TCOON,ioos:station:TCOON:171:1,2019-10-04T18:00:00Z,27.4847,-97.3181,1.0,3.86,11111222 
TCOON,ioos:station:TCOON:171:1,2019-10-04T19:00:00Z,27.4847,-97.3181,1.0,3.15,11111222 
TCOON,ioos:station:TCOON:171:1,2019-10-04T20:00:00Z,27.4847,-97.3181,1.0,4.23,11111222 
TCOON,ioos:station:TCOON:171:1,2019-10-04T20:30:00Z,27.4847,-97.3181,1.0,5.19,11111222 
TCOON,ioos:station:TCOON:171:1,2019-10-04T21:30:00Z,27.4847,-97.3181,1.0,5.23,11111222 
TCOON,ioos:station:TCOON:171:1,2019-10-04T22:30:00Z,27.4847,-97.3181,1.0,5.85,11111222 
TCOON,ioos:station:TCOON:171:1,2019-10-04T23:30:00Z,27.4847,-97.3181,1.0,4.75,11111222 
TCOON,ioos:station:TCOON:171:1,2019-10-05T00:30:00Z,27.4847,-97.3181,1.0,3.98,11111222 
TCOON,ioos:station:TCOON:171:1,2019-10-05T01:30:00Z,27.4847,-97.3181,1.0,5.22,11111222 
TCOON,ioos:station:TCOON:171:1,2019-10-05T02:30:00Z,27.4847,-97.3181,1.0,4.67,11111222 
TCOON,ioos:station:TCOON:171:1,2019-10-05T03:30:00Z,27.4847,-97.3181,1.0,3.14,11111222 
TCOON,ioos:station:TCOON:171:1,2019-10-05T04:30:00Z,27.4847,-97.3181,1.0,2.43,11111222 
TCOON,ioos:station:TCOON:171:1,2019-10-05T05:30:00Z,27.4847,-97.3181,1.0,1.83,11111222 
TCOON,ioos:station:TCOON:171:1,2019-10-05T06:30:00Z,27.4847,-97.3181,1.0,2.13,11111222 
TCOON,ioos:station:TCOON:171:1,2019-10-05T07:30:00Z,27.4847,-97.3181,1.0,2.06,11111222 
TCOON,ioos:station:TCOON:171:1,2019-10-05T08:30:00Z,27.4847,-97.3181,1.0,1.37,11111222 
TCOON,ioos:station:TCOON:171:1,2019-10-05T09:30:00Z,27.4847,-97.3181,1.0,1.86,11111222 
TCOON,ioos:station:TCOON:171:1,2019-10-05T10:30:00Z,27.4847,-97.3181,1.0,1.48,11111222 
TCOON,ioos:station:TCOON:171:1,2019-10-05T11:30:00Z,27.4847,-97.3181,1.0,1.48,11111222 
TCOON,ioos:station:TCOON:171:1,2019-10-05T12:30:00Z,27.4847,-97.3181,1.0,2.27,11111222 
TCOON,ioos:station:TCOON:171:1,2019-10-05T13:30:00Z,27.4847,-97.3181,1.0,1.82,11111222 
TCOON,ioos:station:TCOON:171:1,2019-10-05T14:30:00Z,27.4847,-97.3181,1.0,2.22,11111222 
TCOON,ioos:station:TCOON:171:1,2019-10-05T15:30:00Z,27.4847,-97.3181,1.0,2.85,11111222 
TCOON,ioos:station:TCOON:171:1,2019-10-05T16:30:00Z,27.4847,-97.3181,1.0,2.52,11111222 
TCOON,ioos:station:TCOON:171:1,2019-10-05T17:30:00Z,27.4847,-97.3181,1.0,3.49,11111222 
TCOON,ioos:station:TCOON:171:1,2019-10-05T18:30:00Z,27.4847,-97.3181,1.0,3.7,11111222 
TCOON,ioos:station:TCOON:171:1,2019-10-05T19:30:00Z,27.4847,-97.3181,1.0,3.62,11111222 
TCOON,ioos:station:TCOON:171:1,2019-10-05T20:30:00Z,27.4847,-97.3181,1.0,4.12,11111222 
TCOON,ioos:station:TCOON:171:1,2019-10-05T21:30:00Z,27.4847,-97.3181,1.0,4.88,11111222 
TCOON,ioos:station:TCOON:171:1,2019-10-05T22:30:00Z,27.4847,-97.3181,1.0,4.82,11111222 
TCOON,ioos:station:TCOON:171:1,2019-10-05T23:30:00Z,27.4847,-97.3181,1.0,5.21,11111222 
TCOON,ioos:station:TCOON:171:1,2019-10-06T00:30:00Z,27.4847,-97.3181,1.0,4.46,11111222 
TCOON,ioos:station:TCOON:171:1,2019-10-06T01:30:00Z,27.4847,-97.3181,1.0,3.99,11111222 
TCOON,ioos:station:TCOON:171:1,2019-10-06T02:30:00Z,27.4847,-97.3181,1.0,3.89,11111222 
TCOON,ioos:station:TCOON:171:1,2019-10-06T03:30:00Z,27.4847,-97.3181,1.0,2.42,11111222 
TCOON,ioos:station:TCOON:171:1,2019-10-06T04:30:00Z,27.4847,-97.3181,1.0,2.49,11111222 
TCOON,ioos:station:TCOON:171:1,2019-10-06T05:30:00Z,27.4847,-97.3181,1.0,2.2,11111222 
TCOON,ioos:station:TCOON:171:1,2019-10-06T06:30:00Z,27.4847,-97.3181,1.0,2.23,11111222 
TCOON,ioos:station:TCOON:171:1,2019-10-06T07:30:00Z,27.4847,-97.3181,1.0,1.78,11111222 
TCOON,ioos:station:TCOON:171:1,2019-10-06T08:30:00Z,27.4847,-97.3181,1.0,1.01,11111222 
TCOON,ioos:station:TCOON:171:1,2019-10-06T09:30:00Z,27.4847,-97.3181,1.0,0.84,11111222 
TCOON,ioos:station:TCOON:171:1,2019-10-06T10:30:00Z,27.4847,-97.3181,1.0,1.99,11111222 
TCOON,ioos:station:TCOON:171:1,2019-10-06T11:30:00Z,27.4847,-97.3181,1.0,1.29,11111222 
TCOON,ioos:station:TCOON:171:1,2019-10-06T12:30:00Z,27.4847,-97.3181,1.0,2.16,11111222 
TCOON,ioos:station:TCOON:171:1,2019-10-06T13:30:00Z,27.4847,-97.3181,1.0,2.13,11111222 
TCOON,ioos:station:TCOON:171:1,2019-10-06T14:30:00Z,27.4847,-97.3181,1.0,2.43,11111222 
TCOON,ioos:station:TCOON:171:1,2019-10-06T15:30:00Z,27.4847,-97.3181,1.0,3.11,11111222 
TCOON,ioos:station:TCOON:171:1,2019-10-06T16:30:00Z,27.4847,-97.3181,1.0,2.72,11111222 
TCOON,ioos:station:TCOON:171:1,2019-10-06T17:30:00Z,27.4847,-97.3181,1.0,3.64,11111222 
TCOON,ioos:station:TCOON:171:1,2019-10-06T18:30:00Z,27.4847,-97.3181,1.0,4.43,11111222 
TCOON,ioos:station:TCOON:171:1,2019-10-06T19:30:00Z,27.4847,-97.3181,1.0,3.7,11111222 
TCOON,ioos:station:TCOON:171:1,2019-10-06T20:30:00Z,27.4847,-97.3181,1.0,4.81,11111222 
TCOON,ioos:station:TCOON:171:1,2019-10-06T21:30:00Z,27.4847,-97.3181,1.0,4.24,11111222 
TCOON,ioos:station:TCOON:171:1,2019-10-06T22:30:00Z,27.4847,-97.3181,1.0,4.59,11111222 
TCOON,ioos:station:TCOON:171:1,2019-10-06T23:30:00Z,27.4847,-97.3181,1.0,5.21,11111222 
TCOON,ioos:station:TCOON:171:1,2019-10-07T00:30:00Z,27.4847,-97.3181,1.0,2.89,11111222 
TCOON,ioos:station:TCOON:171:1,2019-10-07T01:30:00Z,27.4847,-97.3181,1.0,4.07,11111222 
TCOON,ioos:station:TCOON:171:1,2019-10-07T02:30:00Z,27.4847,-97.3181,1.0,3.7,11111222 
TCOON,ioos:station:TCOON:171:1,2019-10-07T03:30:00Z,27.4847,-97.3181,1.0,3.33,11111222 
TCOON,ioos:station:TCOON:171:1,2019-10-07T04:30:00Z,27.4847,-97.3181,1.0,2.73,11111222 
TCOON,ioos:station:TCOON:171:1,2019-10-07T05:30:00Z,27.4847,-97.3181,1.0,2.36,11111222 
TCOON,ioos:station:TCOON:171:1,2019-10-07T06:30:00Z,27.4847,-97.3181,1.0,1.77,11111222 
TCOON,ioos:station:TCOON:171:1,2019-10-07T07:30:00Z,27.4847,-97.3181,1.0,2.58,11111222 
TCOON,ioos:station:TCOON:171:1,2019-10-07T08:30:00Z,27.4847,-97.3181,1.0,1.6,11111222 
TCOON,ioos:station:TCOON:171:1,2019-10-07T09:30:00Z,27.4847,-97.3181,1.0,1.23,11111222 
TCOON,ioos:station:TCOON:171:1,2019-10-07T10:30:00Z,27.4847,-97.3181,1.0,0.94,11111222 
TCOON,ioos:station:TCOON:171:1,2019-10-07T11:30:00Z,27.4847,-97.3181,1.0,1.21,11111222 
TCOON,ioos:station:TCOON:171:1,2019-10-07T12:30:00Z,27.4847,-97.3181,1.0,1.88,11111222 
TCOON,ioos:station:TCOON:171:1,2019-10-07T15:00:00Z,27.4847,-97.3181,1.0,2.84,11111222 
TCOON,ioos:station:TCOON:171:1,2019-10-07T15:30:00Z,27.4847,-97.3181,1.0,2.78,11111222 
TCOON,ioos:station:TCOON:171:1,2019-10-07T16:30:00Z,27.4847,-97.3181,1.0,4.15,11111222 
TCOON,ioos:station:TCOON:171:1,2019-10-07T17:30:00Z,27.4847,-97.3181,1.0,4.1,11111222 
TCOON,ioos:station:TCOON:171:1,2019-10-07T18:30:00Z,27.4847,-97.3181,1.0,4.02,11111222 
TCOON,ioos:station:TCOON:171:1,2019-10-07T19:30:00Z,27.4847,-97.3181,1.0,4.39,11111222 
TCOON,ioos:station:TCOON:171:1,2019-10-07T20:30:00Z,27.4847,-97.3181,1.0,5.2,11111222 
TCOON,ioos:station:TCOON:171:1,2019-10-07T21:30:00Z,27.4847,-97.3181,1.0,4.39,11111222 
TCOON,ioos:station:TCOON:171:1,2019-10-07T22:30:00Z,27.4847,-97.3181,1.0,4.65,11111222 
TCOON,ioos:station:TCOON:171:1,2019-10-07T23:30:00Z,27.4847,-97.3181,1.0,5.07,11111222 
TCOON,ioos:station:TCOON:171:1,2019-10-08T00:30:00Z,27.4847,-97.3181,1.0,5.11,11111222 
TCOON,ioos:station:TCOON:171:1,2019-10-08T01:30:00Z,27.4847,-97.3181,1.0,3.93,11111222 
TCOON,ioos:station:TCOON:171:1,2019-10-08T02:30:00Z,27.4847,-97.3181,1.0,4.2,11111222 
TCOON,ioos:station:TCOON:171:1,2019-10-08T03:30:00Z,27.4847,-97.3181,1.0,3.26,11111222 
TCOON,ioos:station:TCOON:171:1,2019-10-08T04:30:00Z,27.4847,-97.3181,1.0,4.1,11111222 
TCOON,ioos:station:TCOON:171:1,2019-10-08T05:30:00Z,27.4847,-97.3181,1.0,3.96,11111222 
TCOON,ioos:station:TCOON:171:1,2019-10-08T06:30:00Z,27.4847,-97.3181,1.0,3.25,11111222 
TCOON,ioos:station:TCOON:171:1,2019-10-08T07:30:00Z,27.4847,-97.3181,1.0,3.24,11111222 
TCOON,ioos:station:TCOON:171:1,2019-10-08T08:30:00Z,27.4847,-97.3181,1.0,2.75,11111222 
TCOON,ioos:station:TCOON:171:1,2019-10-08T09:30:00Z,27.4847,-97.3181,1.0,3.1,11111222 
TCOON,ioos:station:TCOON:171:1,2019-10-08T10:30:00Z,27.4847,-97.3181,1.0,3.21,11111222 
TCOON,ioos:station:TCOON:171:1,2019-10-08T11:30:00Z,27.4847,-97.3181,1.0,2.82,11111222 
TCOON,ioos:station:TCOON:171:1,2019-10-08T12:30:00Z,27.4847,-97.3181,1.0,2.7,11111222 
TCOON,ioos:station:TCOON:171:1,2019-10-08T13:30:00Z,27.4847,-97.3181,1.0,3.06,11111222 
TCOON,ioos:station:TCOON:171:1,2019-10-08T15:00:00Z,27.4847,-97.3181,1.0,3.6,11111222 
TCOON,ioos:station:TCOON:171:1,2019-10-08T15:30:00Z,27.4847,-97.3181,1.0,3.76,11111222 
TCOON,ioos:station:TCOON:171:1,2019-10-08T16:30:00Z,27.4847,-97.3181,1.0,4.52,11111222 
TCOON,ioos:station:TCOON:171:1,2019-10-08T17:30:00Z,27.4847,-97.3181,1.0,4.75,11111222 
TCOON,ioos:station:TCOON:171:1,2019-10-08T19:00:00Z,27.4847,-97.3181,1.0,5.24,11111222 
TCOON,ioos:station:TCOON:171:1,2019-10-08T20:00:00Z,27.4847,-97.3181,1.0,5.0,11111222 
TCOON,ioos:station:TCOON:171:1,2019-10-08T21:00:00Z,27.4847,-97.3181,1.0,5.18,11111222 
TCOON,ioos:station:TCOON:171:1,2019-10-08T21:30:00Z,27.4847,-97.3181,1.0,5.39,11111222 
TCOON,ioos:station:TCOON:171:1,2019-10-08T22:30:00Z,27.4847,-97.3181,1.0,5.21,11111222 
TCOON,ioos:station:TCOON:171:1,2019-10-08T23:30:00Z,27.4847,-97.3181,1.0,4.92,11111222 
TCOON,ioos:station:TCOON:171:1,2019-10-09T00:30:00Z,27.4847,-97.3181,1.0,4.12,11111222 
TCOON,ioos:station:TCOON:171:1,2019-10-09T01:30:00Z,27.4847,-97.3181,1.0,4.27,11111222 
TCOON,ioos:station:TCOON:171:1,2019-10-09T03:00:00Z,27.4847,-97.3181,1.0,2.92,11111222 
TCOON,ioos:station:TCOON:171:1,2019-10-09T03:30:00Z,27.4847,-97.3181,1.0,3.17,11111222 
TCOON,ioos:station:TCOON:171:1,2019-10-09T17:30:00Z,27.4847,-97.3181,1.0,5.0,11111222 
TCOON,ioos:station:TCOON:171:1,2019-10-09T18:30:00Z,27.4847,-97.3181,1.0,7.35,11111222 
TCOON,ioos:station:TCOON:171:1,2019-10-09T19:30:00Z,27.4847,-97.3181,1.0,7.88,11111222 
TCOON,ioos:station:TCOON:171:1,2019-10-09T20:30:00Z,27.4847,-97.3181,1.0,8.25,11111222 
TCOON,ioos:station:TCOON:171:1,2019-10-09T21:30:00Z,27.4847,-97.3181,1.0,8.49,11111222 
TCOON,ioos:station:TCOON:171:1,2019-10-09T22:30:00Z,27.4847,-97.3181,1.0,8.28,11111222 
TCOON,ioos:station:TCOON:171:1,2019-10-10T02:00:00Z,27.4847,-97.3181,1.0,6.26,11111222 
TCOON,ioos:station:TCOON:171:1,2019-10-10T02:30:00Z,27.4847,-97.3181,1.0,5.93,11111222 
TCOON,ioos:station:TCOON:171:1,2019-10-10T03:30:00Z,27.4847,-97.3181,1.0,5.53,11111222 
TCOON,ioos:station:TCOON:171:1,2019-10-10T04:30:00Z,27.4847,-97.3181,1.0,5.31,11111222 
TCOON,ioos:station:TCOON:171:1,2019-10-10T06:00:00Z,27.4847,-97.3181,1.0,5.2,11111222 
TCOON,ioos:station:TCOON:171:1,2019-10-10T06:30:00Z,27.4847,-97.3181,1.0,5.17,11111222 
TCOON,ioos:station:TCOON:171:1,2019-10-10T07:30:00Z,27.4847,-97.3181,1.0,5.13,11111222 
TCOON,ioos:station:TCOON:171:1,2019-10-10T08:30:00Z,27.4847,-97.3181,1.0,5.0,11111222 
TCOON,ioos:station:TCOON:171:1,2019-10-10T09:30:00Z,27.4847,-97.3181,1.0,5.07,11111222 
TCOON,ioos:station:TCOON:171:1,2019-10-10T10:30:00Z,27.4847,-97.3181,1.0,5.03,11111222 
TCOON,ioos:station:TCOON:171:1,2019-10-10T11:30:00Z,27.4847,-97.3181,1.0,4.77,11111222 
TCOON,ioos:station:TCOON:171:1,2019-10-10T12:30:00Z,27.4847,-97.3181,1.0,4.68,11111222 
TCOON,ioos:station:TCOON:171:1,2019-10-10T13:30:00Z,27.4847,-97.3181,1.0,4.84,11111222 
TCOON,ioos:station:TCOON:171:1,2019-10-10T14:30:00Z,27.4847,-97.3181,1.0,5.3,11111222 
TCOON,ioos:station:TCOON:171:1,2019-10-10T15:30:00Z,27.4847,-97.3181,1.0,5.11,11111222 
TCOON,ioos:station:TCOON:171:1,2019-10-10T16:30:00Z,27.4847,-97.3181,1.0,3.79,11111222 
TCOON,ioos:station:TCOON:171:1,2019-10-10T17:30:00Z,27.4847,-97.3181,1.0,5.85,11111222 
TCOON,ioos:station:TCOON:171:1,2019-10-10T18:30:00Z,27.4847,-97.3181,1.0,7.24,11111222 
TCOON,ioos:station:TCOON:171:1,2019-10-10T19:30:00Z,27.4847,-97.3181,1.0,7.62,11111222 
TCOON,ioos:station:TCOON:171:1,2019-10-10T20:30:00Z,27.4847,-97.3181,1.0,7.79,11111222 
TCOON,ioos:station:TCOON:171:1,2019-10-10T21:30:00Z,27.4847,-97.3181,1.0,7.89,11111222 
TCOON,ioos:station:TCOON:171:1,2019-10-10T22:30:00Z,27.4847,-97.3181,1.0,7.6,11111222 
TCOON,ioos:station:TCOON:171:1,2019-10-10T23:30:00Z,27.4847,-97.3181,1.0,7.18,11111222 
TCOON,ioos:station:TCOON:171:1,2019-10-11T00:30:00Z,27.4847,-97.3181,1.0,6.58,11111222 
TCOON,ioos:station:TCOON:171:1,2019-10-11T01:30:00Z,27.4847,-97.3181,1.0,6.04,11111222 
TCOON,ioos:station:TCOON:171:1,2019-10-11T02:30:00Z,27.4847,-97.3181,1.0,5.57,11111222 
TCOON,ioos:station:TCOON:171:1,2019-10-11T03:30:00Z,27.4847,-97.3181,1.0,5.38,11111222 
TCOON,ioos:station:TCOON:171:1,2019-10-11T04:30:00Z,27.4847,-97.3181,1.0,5.23,11111222 
TCOON,ioos:station:TCOON:171:1,2019-10-11T05:30:00Z,27.4847,-97.3181,1.0,4.9,11111222 
TCOON,ioos:station:TCOON:171:1,2019-10-11T06:30:00Z,27.4847,-97.3181,1.0,4.87,11111222 
TCOON,ioos:station:TCOON:171:1,2019-10-11T07:30:00Z,27.4847,-97.3181,1.0,4.77,11111222 
TCOON,ioos:station:TCOON:171:1,2019-10-11T08:30:00Z,27.4847,-97.3181,1.0,4.73,11111222 
TCOON,ioos:station:TCOON:171:1,2019-10-11T09:30:00Z,27.4847,-97.3181,1.0,4.77,11111222 
TCOON,ioos:station:TCOON:171:1,2019-10-11T10:30:00Z,27.4847,-97.3181,1.0,4.66,11111222 
TCOON,ioos:station:TCOON:171:1,2019-10-11T11:30:00Z,27.4847,-97.3181,1.0,4.53,11111222 
TCOON,ioos:station:TCOON:171:1,2019-10-11T12:30:00Z,27.4847,-97.3181,1.0,4.3,11111222 
TCOON,ioos:station:TCOON:171:1,2019-10-11T13:30:00Z,27.4847,-97.3181,1.0,4.33,11111222 
TCOON,ioos:station:TCOON:171:1,2019-10-11T15:00:00Z,27.4847,-97.3181,1.0,5.04,11111222 
TCOON,ioos:station:TCOON:171:1,2019-10-11T16:00:00Z,27.4847,-97.3181,1.0,5.73,11111222 
TCOON,ioos:station:TCOON:171:1,2019-10-11T17:00:00Z,27.4847,-97.3181,1.0,5.95,11111222 
TCOON,ioos:station:TCOON:171:1,2019-10-11T18:00:00Z,27.4847,-97.3181,1.0,5.66,11111222 
TCOON,ioos:station:TCOON:171:1,2019-10-11T18:30:00Z,27.4847,-97.3181,1.0,5.68,11111222 
TCOON,ioos:station:TCOON:171:1,2019-10-11T19:30:00Z,27.4847,-97.3181,1.0,5.51,11111222 
TCOON,ioos:station:TCOON:171:1,2019-10-11T20:30:00Z,27.4847,-97.3181,1.0,5.18,11111222 
TCOON,ioos:station:TCOON:171:1,2019-10-11T21:30:00Z,27.4847,-97.3181,1.0,5.41,11111222 
TCOON,ioos:station:TCOON:171:1,2019-10-11T22:30:00Z,27.4847,-97.3181,1.0,5.66,11111222 
TCOON,ioos:station:TCOON:171:1,2019-10-11T23:30:00Z,27.4847,-97.3181,1.0,5.71,11111222 
TCOON,ioos:station:TCOON:171:1,2019-10-12T00:30:00Z,27.4847,-97.3181,1.0,5.64,11111222 
TCOON,ioos:station:TCOON:171:1,2019-10-12T01:30:00Z,27.4847,-97.3181,1.0,5.59,11111222 
TCOON,ioos:station:TCOON:171:1,2019-10-12T02:30:00Z,27.4847,-97.3181,1.0,5.53,11111222 
TCOON,ioos:station:TCOON:171:1,2019-10-12T03:30:00Z,27.4847,-97.3181,1.0,5.68,11111222 
TCOON,ioos:station:TCOON:171:1,2019-10-12T04:30:00Z,27.4847,-97.3181,1.0,5.76,11111222 
TCOON,ioos:station:TCOON:171:1,2019-10-12T06:00:00Z,27.4847,-97.3181,1.0,6.0,11111222 
TCOON,ioos:station:TCOON:171:1,2019-10-12T06:30:00Z,27.4847,-97.3181,1.0,6.0,11111222 
TCOON,ioos:station:TCOON:171:1,2019-10-12T07:30:00Z,27.4847,-97.3181,1.0,5.71,11111222 
TCOON,ioos:station:TCOON:171:1,2019-10-12T08:30:00Z,27.4847,-97.3181,1.0,5.83,11111222 
TCOON,ioos:station:TCOON:171:1,2019-10-12T09:30:00Z,27.4847,-97.3181,1.0,5.83,11111222 
TCOON,ioos:station:TCOON:171:1,2019-10-12T10:30:00Z,27.4847,-97.3181,1.0,6.06,11111222 
TCOON,ioos:station:TCOON:171:1,2019-10-12T11:30:00Z,27.4847,-97.3181,1.0,6.11,11111222 
TCOON,ioos:station:TCOON:171:1,2019-10-12T12:30:00Z,27.4847,-97.3181,1.0,6.02,11111222 
TCOON,ioos:station:TCOON:171:1,2019-10-12T13:30:00Z,27.4847,-97.3181,1.0,6.16,11111222 
TCOON,ioos:station:TCOON:171:1,2019-10-12T14:30:00Z,27.4847,-97.3181,1.0,6.22,11111222 
TCOON,ioos:station:TCOON:171:1,2019-10-12T15:30:00Z,27.4847,-97.3181,1.0,6.46,11111222 
TCOON,ioos:station:TCOON:171:1,2019-10-12T16:30:00Z,27.4847,-97.3181,1.0,6.97,11111222 
TCOON,ioos:station:TCOON:171:1,2019-10-12T17:30:00Z,27.4847,-97.3181,1.0,7.07,11111222 
TCOON,ioos:station:TCOON:171:1,2019-10-12T18:30:00Z,27.4847,-97.3181,1.0,7.36,11111222 
TCOON,ioos:station:TCOON:171:1,2019-10-12T19:30:00Z,27.4847,-97.3181,1.0,7.78,11111222 
TCOON,ioos:station:TCOON:171:1,2019-10-12T20:30:00Z,27.4847,-97.3181,1.0,8.6,11111222 
TCOON,ioos:station:TCOON:171:1,2019-10-12T21:30:00Z,27.4847,-97.3181,1.0,8.53,11111222 
TCOON,ioos:station:TCOON:171:1,2019-10-12T22:30:00Z,27.4847,-97.3181,1.0,8.66,11111222 